TimeEDT,TemperatureF,Dew PointF,Humidity,Sea Level PressureIn,VisibilityMPH,Wind Direction,Wind SpeedMPH,Gust SpeedMPH,PrecipitationIn,Events,Conditions,WindDirDegrees,DateUTC
12:54 AM,77.0,70.0,79,29.79,7.0,ESE,4.6,-,N/A,,Clear,110,2013-06-13 04:54:00
1:54 AM,75.9,71.1,85,29.80,7.0,ESE,10.4,-,N/A,,Clear,120,2013-06-13 05:54:00
2:54 AM,75.9,70.0,82,29.77,7.0,SE,13.8,-,N/A,,Clear,140,2013-06-13 06:54:00
3:54 AM,75.0,71.1,87,29.74,7.0,SE,11.5,-,N/A,,Clear,140,2013-06-13 07:54:00
4:54 AM,73.9,69.1,85,29.72,8.0,SE,11.5,-,0.00,,Partly Cloudy,140,2013-06-13 08:54:00
5:54 AM,73.0,69.1,87,29.70,6.0,SSE,10.4,-,N/A,,Clear,160,2013-06-13 09:54:00
6:54 AM,73.9,71.1,91,29.69,6.0,SSE,8.1,-,N/A,,Mostly Cloudy,150,2013-06-13 10:54:00
7:41 AM,73.9,72.0,93,29.65,7.0,South,15.0,19.6,N/A,,Scattered Clouds,170,2013-06-13 11:41:00
7:54 AM,73.9,72.0,93,29.66,7.0,South,13.8,21.9,N/A,,Partly Cloudy,170,2013-06-13 11:54:00
8:54 AM,75.9,73.9,94,29.64,8.0,South,16.1,21.9,N/A,,Clear,180,2013-06-13 12:54:00
9:34 AM,77.0,73.0,88,29.68,1.5,WNW,21.9,36.8,0.05,Rain,Rain,290,2013-06-13 13:34:00
9:39 AM,72.0,70.0,93,29.67,0.5,West,15.0,36.8,0.23,Fog-Rain,Heavy Rain,260,2013-06-13 13:39:00
9:49 AM,71.6,69.8,94,29.64,3.0,NW,8.1,-,0.24,Rain,Light Rain,310,2013-06-13 13:49:00
9:54 AM,73.0,70.0,90,29.65,6.0,West,10.4,17.3,0.25,Rain,Light Rain,270,2013-06-13 13:54:00
10:54 AM,75.9,70.0,82,29.62,10.0,Variable,4.6,-,0.00,,Clear,0,2013-06-13 14:54:00
11:54 AM,81.0,68.0,65,29.55,10.0,WSW,8.1,-,N/A,,Scattered Clouds,240,2013-06-13 15:54:00
12:54 PM,81.0,66.9,62,29.54,10.0,SSW,4.6,-,N/A,,Clear,210,2013-06-13 16:54:00
1:54 PM,84.9,66.0,53,29.53,10.0,SW,11.5,19.6,N/A,,Clear,230,2013-06-13 17:54:00
2:54 PM,88.0,69.1,53,29.50,10.0,Variable,5.8,-,N/A,,Clear,0,2013-06-13 18:54:00
3:54 PM,84.9,64.9,51,29.47,10.0,WSW,8.1,18.4,N/A,,Mostly Cloudy,240,2013-06-13 19:54:00
4:41 PM,78.1,68.0,71,29.54,1.0,North,-9999.0,-,0.11,,Haze,0,2013-06-13 20:41:00
4:44 PM,70.0,68.0,93,29.50,0.2,North,-9999.0,-,0.28,Fog,Fog,0,2013-06-13 20:44:00
4:57 PM,70.0,68.0,93,29.49,4.0,NW,5.8,-,0.00,Rain,Light Rain,310,2013-06-13 20:57:00
5:54 PM,71.1,69.1,93,29.48,10.0,West,5.8,-,0.00,,Clear,270,2013-06-13 21:54:00
6:54 PM,73.0,70.0,90,29.48,10.0,West,6.9,-,N/A,,Clear,270,2013-06-13 22:54:00
7:54 PM,73.9,69.1,85,29.50,10.0,West,11.5,-,N/A,,Mostly Cloudy,280,2013-06-13 23:54:00
8:54 PM,73.0,66.9,81,29.51,10.0,WNW,17.3,25.3,N/A,,Mostly Cloudy,290,2013-06-14 00:54:00
9:54 PM,71.1,62.1,73,29.55,10.0,West,9.2,-,N/A,,Scattered Clouds,280,2013-06-14 01:54:00
10:54 PM,70.0,61.0,73,29.56,10.0,West,9.2,18.4,N/A,,Overcast,280,2013-06-14 02:54:00
11:54 PM,70.0,60.1,71,29.56,10.0,WNW,10.4,-,N/A,,Overcast,290,2013-06-14 03:54:00